www.pogodaiklimat.ru

Погода и климат >> Архив погоды >> Франция >> Париж Орли аэропорт


АРХИВ ПОГОДЫ в Париж Орли аэропорту

Время (UTC), дата Ветер
(напр.,м/с)
 
Видим.   Явления Облачность Т
(С)
Тd
(С)
f
(%)
Тe
(С)
Тes
(С)
Комфортность P
(гПа)
Po
(гПа)
Тmin
(С)
Tmax
(С)
R
(мм)
R24
(мм)
S
(см)
04 16.05 СВ 1 35 км 1/0
[]
+7.6 +1.0 63 +7 +7 по сезону 1017.9 1006.9
05 16.05 СВ 2 25 км 1/0
[]
+8.6 +1.3 60 +8 +8 по сезону 1018.3 1007.3
06 16.05 В 4
{5}
20 км 1/0
[Ac trans Ci fib]
+10.2 +0.8 52 +8 +9 по сезону 1018.4 1007.5 +6.7 +16.8
07 16.05 В 2 20 км 3/0
[]
+11.4 +1.6 51 +11 +14 по сезону 1018.2 1007.3
08 16.05 В 2 16 км 4/0
[]
+13.2 +2.4 48 +13 +20 по сезону 1017.8 1007.0
09 16.05 В 4
{6}
30 км 3/0
[Ci fib]
+15.3 +1.8 40 +15 +23 по сезону 1017.1 1006.4
10 16.05 В 3 30 км 3/1 1500 м
[Cu hum Ci fib]
+15.8 +1.5 38 +16 +27 по сезону 1016.5 1005.8
11 16.05 С 3 30 км 3/3 1500 м
[Cu hum Ci fib]
+16.3 +3.0 41 +16 +26 по сезону 1015.9 1005.2
12 16.05 СВ 7
{14}
30 км 3/1 1500 м
[Cu hum Ci fib]
+16.6 +3.3 41 +15 +20 по сезону 1015.4 1004.7
13 16.05 СВ 4 23 км 4/3 1500 м
[Cu hum Ci fib]
+17.1 +4.4 43 +17 +25 тепло 1014.5 1003.9
14 16.05 СВ 4 30 км н/о +17.3 +4.3 42 +17 +17 по сезону 1013.6 1003.0
15 16.05 СВ 6
{11}
30 км 6/4 1500 м
[Cu hum Ci fib]
+17.4 +4.7 43 +17 +19 по сезону 1012.9 1002.3
16 16.05 В 3 30 км 8/5 1500 м
[Cu hum Ci fib]
+16.3 +4.0 44 +16 +18 по сезону 1012.2 1001.6
17 16.05 В 3 40 км 9/6 1500 м
[Sc diur, vesp Ci fib]
+16.3 +4.0 44 +16 +17 по сезону 1011.6 1001.0
18 16.05 В 6
{9}
30 км 9/9 1500 м
[Sc diur, vesp]
+15.8 +3.9 45 +15 +15 по сезону 1011.5 1000.8 +10.2 +17.7
19 16.05 В 2 30 км 9/9 1500 м
[Sc diur, vesp]
+15.4 +4.1 47 +15 +15 тепло 1011.2 1000.5
20 16.05 СВ 2 30 км 6/6 1500 м
[Sc diur, vesp]
+13.8 +4.4 53 +13 +13 по сезону 1011.2 1000.5
21 16.05 СВ 3
{6}
30 км 9/9 1500 м
[Sc diur, vesp]
+13.4 +4.8 56 +13 +13 по сезону 1010.8 1000.1
22 16.05 СВ 2 45 км 3/3 1500 м
[Sc]
+12.8 +4.5 57 +12 +12 тепло 1010.2 999.4
23 16.05 СВ 2 30 км 3/0
[]
+11.7 +4.9 63 +11 +11 тепло 1009.4 998.6
00 17.05 СВ 3
{5}
30 км 1/0
[Ci fib]
+10.9 +5.0 67 +9 +9 по сезону 1008.8 998.0
01 17.05 СВ 2 20 км 8/0
[]
+9.8 +4.8 71 +9 +9 тепло 1008.0 997.2
02 17.05 С 2 19 км 8/0
[]
+9.6 +5.2 74 +9 +9 по сезону 1007.3 996.5
03 17.05 С 3
{6}
20 км 9/4 1500 м
[Sc Ci fib]
+8.9 +4.9 76 +6 +6 прохладно 1007.2 996.3
04 17.05 С 2 13 км 9/4 1500 м
[Sc Ci fib]
+9.1 +5.1 76 +8 +8 по сезону 1006.9 996.0
05 17.05 С 2 15 км 8/1 1500 м
[Sc Ci fib]
+10.1 +5.9 75 +9 +9 по сезону 1006.7 995.9
06 17.05 С 3
{7}
15 км 8/1 1500 м
[Sc Ci fib]
+11.4 +6.3 71 +10 +11 по сезону 1006.5 995.7 +8.9 +15.9
07 17.05 С 2 9000 м 9/9 1500 м
[Sc]
+11.2 +6.3 72 +10 +11 по сезону 1006.4 995.6
08 17.05 СВ 2 9000 м 9/9 1500 м
[Sc]
+11.8 +6.7 71 +11 +12 по сезону 1006.0 995.3
09 17.05 С 3
{5}
15 км 9/9 1500 м
[Sc]
+13.3 +7.7 69 +12 +13 по сезону 1005.8 995.1
10 17.05 СВ 2 15 км 9/9 2000 м
[Sc]
+14.9 +7.4 61 +15 +17 по сезону 1005.6 995.0
11 17.05 С 1 15 км 10/10 2000 м
[]
+17.3 +7.9 54 +18 +18 тепло 1005.2 994.7
12 17.05 СВ 2
{6}
17 км 9/9 1200 м
[Cu Sc]
+18.1 +6.6 47 +19 +21 тепло 1005.1 994.6
13 17.05 СВ 1 22 км 9/6 1500 м
[Cu Sc Ci fib]
+18.3 +6.8 47 +20 +26 тепло 1004.9 994.4
14 17.05 С 1 35 км 10/10 1500 м
[]
+18.1 +6.6 47 +19 +19 тепло 1004.9 994.4
15 17.05 СВ 3
{6}
40 км 9/9 1500 м
[]
+18.2 +7.6 50 +19 +20 тепло 1004.8 994.3 0
16 17.05 СВ 1 30 км 9/9 1500 м
[Cu Sc]
+18.0 +7.4 50 +19 +20 тепло 1004.4 993.9
17 17.05 СВ 1 30 км 9/9 1500 м
[Cu Sc]
+18.0 +7.4 50 +19 +20 тепло 1004.2 993.7
18 17.05 С 3
{5}
28 км 9/9 1500 м
[Cu Sc]
+17.5 +7.5 52 +18 +18 тепло 1004.2 993.7 +11.1 +19.1
19 17.05 В 2 30 км 9/9 1500 м
[Cu Sc]
+17.1 +7.7 54 +17 +17 тепло 1004.3 993.8
20 17.05 СВ 2 30 км 9/9 1500 м
[Cu Sc]
+16.5 +7.2 54 +17 +17 тепло 1004.6 994.1
21 17.05 СВ 3
{4}
30 км 9/5 1500 м
[Cu Sc Ac trans]
+15.8 +7.5 58 +15 +15 тепло 1004.8 994.2
22 17.05 В 2 30 км 9/8 1440 м
[Cu Sc Ac trans]
+15.4 +7.9 61 +16 +16 тепло 1004.9 994.3
23 17.05 В 1 15 км слаб. дождь 9/9 1320 м
[Sc]
+14.3 +9.5 73 +15 +15 тепло 1004.6 994.0 0.0
00 18.05 ЮВ 2
{4}
30 км {дождь} 9/9 1500 м
[Sc]
+13.5 +10.1 80 +13 +13 тепло 1004.7 994.0 0.0
01 18.05 ЮВ 1 29 км в посл. час дождь 9/9 1500 м
[Sc]
+12.9 +10.3 84 +14 +14 тепло 1004.6 993.9 0.0
02 18.05 Ю 1 21 км слаб. дождь 9/9 2000 м
[Sc]
+12.5 +10.0 85 +12 +12 тепло 1004.4 993.7 0.0
03 18.05 Ю 3
{5}
25 км в посл. час дождь 9/0
[Ac As]
+12.2 +10.1 87 +11 +11 по сезону 1004.4 993.7 0.0
04 18.05 Ю 1 16 км слаб. дождь 9/9 1500 м
[Sc]
+12.0 +10.1 88 +12 +12 тепло 1004.1 993.4 0.0
05 18.05 ЮВ 2 6000 м слаб. дождь 9/9 270 м
[Sc]
+11.6 +10.2 91 +11 +11 тепло 1004.4 993.7 0.4
06 18.05 Ю 2
{4}
15 км в посл. час дождь 10/9 210 м
[Frnb]
+11.9 +10.8 93 +11 +11 по сезону 1004.6 993.9 +11.6 +17.5 0.6
07 18.05 Ю 1 20 км 9/9 210 м
[Frnb]
+13.3 +11.7 90 +14 +15 тепло 1004.7 994.0
08 18.05 Ю 1 20 км 9/9 330 м
[Cu Sc]
+14.2 +11.0 81 +15 +16 тепло 1004.9 994.3
09 18.05 Ю 3
{5}
25 км 9/9 450 м
[Cu Sc]
+13.8 +10.2 79 +13 +14 по сезону 1005.2 994.6
10 18.05 Ю 1 40 км 9/6 600 м
[Cu Sc Ac trans Ci fib]
+15.9 +11.5 75 +17 +21 по сезону 1005.3 994.7
11 18.05 ЮВ 2 14 км 9/6 840 м
[Cu Sc Ac trans]
+16.9 +9.6 62 +17 +21 по сезону 1005.2 994.7
12 18.05 Ю 2
{7}
25 км 9/6 1050 м
[Cu Sc Ac trans]
+18.2 +10.1 59 +19 +23 тепло 1004.8 994.3
13 18.05 ЮВ 1 25 км 9/6 1110 м
[Cu Sc Ac trans]
+18.3 +9.6 57 +20 +24 тепло 1005.0 994.5
14 18.05 ЮВ 2 25 км 9/9 1200 м
[Cu Sc]
+17.5 +8.9 57 +18 +20 тепло 1004.9 994.4
15 18.05 ЮВ 2
{6}
25 км 9/9 1200 м
[Cu Sc]
+17.4 +9.0 58 +18 +19 тепло 1004.8 994.3
16 18.05 В 1 40 км н/о +18.7 +9.2 54 +21 +21 комфорт 1004.7 994.2
17 18.05 В 1 40 км 9/4 1230 м
[Cu med, cong Ac trans Ci fib]
+18.1 +8.4 53 +19 +21 тепло 1004.9 994.4
18 18.05 С 1
{4}
20 км 9/6 1200 м
[Cb calv Ac trans Ci fib]
+17.7 +8.3 54 +19 +19 тепло 1005.2 994.7 +11.9 +18.8
19 18.05 В 2 1900 м дождь {ливн. осадки} 10/9 700 м
[]
+13.9 +11.4 85 +13 +13 тепло 1006.2 995.6 3
20 18.05 С 1 20 км {ливн. осадки} 10/1 1350 м
[]
+13.2 +11.6 90 +13 +13 по сезону 1006.6 995.9 1
21 18.05 СЗ 2
{5}
15 км {ливн. осадки, дождь} 9/5 1200 м
[Cu Sc Ac As]
+13.4 +12.0 91 +13 +13 по сезону 1006.9 996.2 4
22 18.05 С 1 5000 м 9/9 1500 м
[]
+12.8 +11.5 92 +14 +14 тепло 1006.8 996.1
23 18.05 С 1 3300 м 9/4 2000 м
[Sc Ac trans Ci fib]
+12.4 +11.5 94 +12 +12 тепло 1006.8 996.1
00 19.05 С 1
{3}
8000 м {ливн. осадки, дождь} 8/3 2000 м
[Sc Ac trans Ci fib]
+12.3 +11.5 95 +12 +12 по сезону 1006.6 995.9
01 19.05 С 1 1100 м 6/6 1500 м
[Sc]
+12.0 +11.4 96 +13 +13 тепло 1006.6 995.9
02 19.05 С 1 8000 м местами туман поземный 8/6 1500 м
[Sc Ci fib]
+12.1 +11.6 97 +13 +13 тепло 1006.4 995.7
03 19.05 З 1
{2}
300 м туман местами 5/5 90 м
[Sc]
+11.4 +10.9 97 +11 +11 по сезону 1006.3 995.6
04 19.05 З 1 100 м туман местами 6/5 30 м
[St Ac trans Ci fib]
+10.5 +9.9 96 +10 +10 тепло 1006.4 995.6
05 19.05 З 2 4200 м {туман} 6/4 60 м
[Sc diur, vesp Ci fib]
+11.6 +11.3 98 +11 +11 тепло 1006.5 995.8
06 19.05 СЗ 2
{7}
7000 м {туман} 9/5 90 м
[Sc Ci fib]
+12.2 +11.7 97 +11 +12 по сезону 1006.8 996.1 +10.3 +17.7 4
07 19.05 СЗ 1 5000 м 10/8 180 м
[]
+13.1 +12.5 96 +13 +14 по сезону 1007.1 996.4
08 19.05 С 2 6000 м слаб. дождь 9/8 210 м
[Sc]
+14.3 +13.0 92 +14 +15 по сезону 1007.0 996.4 0.0
09 19.05 СЗ 2
{7}
7000 м в посл. час дождь 9/8 300 м
[Cu Sc]
+15.2 +12.7 85 +15 +17 по сезону 1007.2 996.6 0.0
10 19.05 С 1 8000 м 9/8 450 м
[Cu Sc]
+15.8 +12.2 79 +16 +19 по сезону 1007.3 996.7
11 19.05 С 2 12 км 10/8 630 м
[]
+16.7 +12.2 75 +17 +19 по сезону 1007.1 996.5
12 19.05 С 3
{9}
13 км {дождь} 9/9 700 м
[Cu Sc]
+17.0 +12.5 75 +17 +18 по сезону 1007.1 996.6
13 19.05 С 2 16 км 9/8 700 м
[Cb cap]
+17.9 +11.9 68 +19 +21 тепло 1007.0 996.5
14 19.05 СВ 2 8000 м 9/9 800 м
[Cb cap]
+15.5 +10.9 74 +15 +17 по сезону 1007.3 996.7
15 19.05 СВ 4
{8}
4000 м слаб. дождь 9/9 600 м
[Cb cap]
+14.7 +12.2 85 +14 +14 прохладно 1007.6 997.0 0.8
16 19.05 ЮЗ 1 3000 м в посл. час дождь 9/9 540 м
[Cu Sc]
+14.9 +12.9 88 +16 +17 по сезону 1007.8 997.2 0.6
17 19.05 З 2 6000 м ливневой дождь 9/9 360 м
[Cb cap]
+14.4 +12.6 89 +14 +15 по сезону 1007.6 997.0 2
18 19.05 С 3
{7}
12 км в посл. час ливневой дождь 9/1 420 м
[Cu med, cong Ac trans]
+14.7 +12.2 85 +14 +14 прохладно 1007.8 997.2 +12.3 +18.2 3
19 19.05 С 2 11 км слаб. дождь 9/5 420 м
[Cu Sc Ac trans]
+14.8 +12.5 86 +15 +15 тепло 1008.0 997.4 0.0
20 19.05 С 1 8000 м в посл. час дождь 9/9 420 м
[Cu Sc]
+14.4 +12.1 86 +15 +15 тепло 1008.7 998.0 0.0
21 19.05 С 3
{7}
6000 м слаб. ливневой дождь 10/9 450 м
[Cu Sc]
+13.9 +11.4 85 +13 +13 по сезону 1009.2 998.5 0.2
22 19.05 С 2 18 км в посл. час ливневой дождь 5/5 450 м
[Cu Sc]
+12.8 +10.7 87 +12 +12 тепло 1009.5 998.8 0.0
23 19.05 С 2 18 км 9/4 2000 м
[Sc Ac trans]
+12.9 +10.4 85 +12 +12 тепло 1009.5 998.8
00 20.05 СЗ 3
{5}
14 км {ливн. осадки, дождь} 9/9 450 м
[Cu Sc]
+12.8 +10.3 85 +11 +11 по сезону 1009.5 998.8 0.0
01 20.05 СЗ 2 12 км 10/9 1500 м
[Sc]
+12.4 +9.4 82 +12 +12 тепло 1009.2 998.5
02 20.05 С 2 21 км 10/9 1500 м
[Sc]
+11.9 +8.2 78 +11 +11 по сезону 1009.2 998.4
03 20.05 СЗ 4
{6}
10 км в посл. час ливневой дождь 10/10 1500 м
[Sc]
+11.7 +8.7 82 +10 +10 по сезону 1009.3 998.5 0.0
04 20.05 С 2 16 км 9/9 300 м
[Cu Sc]
+11.5 +8.9 84 +10 +10 тепло 1009.5 998.7
05 20.05 СЗ 2 20 км 9/9 420 м
[Cu Sc]
+11.4 +9.0 85 +10 +10 по сезону 1009.8 999.0
06 20.05 С 3
{7}
12 км слаб. дождь 9/9 400 м
[Cu Sc]
+11.5 +9.4 87 +10 +10 по сезону 1010.4 999.6 +11.3 +14.8 0.2
07 20.05 СЗ 2 12 км слаб. дождь 9/9 420 м
[Cu Sc]
+11.8 +9.7 87 +11 +12 по сезону 1011.0 1000.2 0.0
08 20.05 С 2 12 км слаб. дождь 9/9 420 м
[Cb cap]
+12.6 +9.8 83 +12 +12 по сезону 1011.3 1000.5 0.0
09 20.05 СЗ 4
{7}
12 км {дождь} 9/9 420 м
[Cb cap]
+13.2 +10.2 82 +11 +12 прохладно 1011.4 1000.7 0.0
10 20.05 С 2 9000 м 9/9 450 м
[Cu Sc]
+14.2 +10.4 78 +14 +15 прохладно 1011.4 1000.7
11 20.05 СЗ 2 22 км 9/9 630 м
[Cu Sc]
+16.3 +11.2 72 +16 +18 по сезону 1011.4 1000.8
12 20.05 СЗ 5
{9}
14 км 9/9 600 м
[]
+17.1 +10.9 67 +17 +18 по сезону 1011.6 1001.0 0
13 20.05 С 3 15 км 6/6 960 м
[Cu med, cong]
+18.1 +11.2 64 +19 +24 тепло 1011.7 1001.1
14 20.05 СЗ 3 15 км 9/9 1110 м
[]
+18.4 +11.2 63 +19 +20 тепло 1011.8 1001.3
15 20.05 СЗ 5
{8}
22 км 9/9 960 м
[Cu Sc]
+18.0 +11.1 64 +18 +18 по сезону 1011.8 1001.2
16 20.05 С 3 25 км 8/8 1000 м
[Cu Sc]
+18.9 +10.7 59 +20 +21 тепло 1011.7 1001.2
17 20.05 СЗ 3 25 км 8/8 1110 м
[Cu Sc]
+18.7 +10.5 59 +19 +20 тепло 1011.8 1001.3
18 20.05 С 5
{9}
25 км 8/4 1200 м
[Cu Sc Ci fib]
+17.9 +10.0 60 +18 +18 тепло 1012.4 1001.8 +11.5 +19.0
19 20.05 С 3 25 км 8/5 1110 м
[Cu Sc Ci fib]
+16.9 +10.3 65 +17 +17 тепло 1012.8 1002.2
20 20.05 С 2 15 км 8/5 900 м
[Cu Sc Ci fib]
+15.6 +10.1 70 +16 +16 тепло 1013.6 1002.9
21 20.05 С 3
{6}
29 км 9/9 1000 м
[]
+15.5 +10.0 70 +15 +15 по сезону 1014.3 1003.6 0
22 20.05 СЗ 2 18 км 9/1 1000 м
[]
+14.7 +9.3 70 +14 +14 тепло 1015.0 1004.3
23 20.05 С 2 10 км 9/9 900 м
[Cu Sc]
+14.1 +9.9 76 +14 +14 тепло 1015.3 1004.6
00 21.05 СЗ 2
{5}
15 км 10/10 870 м
[Cu Sc]
+12.9 +9.2 78 +12 +12 по сезону 1015.6 1004.8
01 21.05 З 1 7000 м 9/9 2000 м
[]
+12.9 +9.0 77 +13 +13 тепло 1015.4 1004.6
02 21.05 З 1 12 км 3/3 2000 м
[Sc]
+11.0 +8.7 86 +11 +11 по сезону 1015.5 1004.6
03 21.05 СЗ 2
{4}
12 км 1/1 2000 м
[Sc]
+11.4 +8.1 80 +10 +10 по сезону 1015.7 1004.8
04 21.05 СЗ 2 15 км 1/0
[]
+9.8 +7.0 83 +9 +9 по сезону 1016.0 1005.1
05 21.05 З 1 14 км 1/0
[]
+10.6 +8.5 87 +10 +11 по сезону 1016.2 1005.3
06 21.05 СЗ 3
{4}
12 км ясно +12.7 +9.3 80 +12 +13 по сезону 1016.6 1005.8 +9.7 +17.9
07 21.05 С 1 9000 м 1/0
[Ac trans]
+14.6 +10.2 75 +15 +20 тепло 1016.9 1006.2
08 21.05 СЗ 2 14 км 1/0
[Ac trans]
+16.7 +10.3 66 +17 +25 тепло 1017.2 1006.5
09 21.05 С 3
{8}
14 км 3/1 930 м
[Cu hum Ac trans]
+18.3 +10.6 61 +19 +26 тепло 1017.3 1006.7
10 21.05 С 2 10 км 4/3 1000 м
[Cu med, cong Ac trans]
+18.9 +9.9 56 +20 +30 тепло 1017.4 1006.8
11 21.05 СЗ 2 10 км 8/5 1380 м
[]
+19.7 +9.8 53 +22 +28 комфорт 1017.3 1006.7
12 21.05 С 3
{7}
18 км 8/6 1300 м
[Cb calv Ac trans]
+19.0 +10.3 57 +20 +24 тепло 1017.4 1006.8
13 21.05 СЗ 3 15 км 9/6 1230 м
[Cb calv Ac trans]
+18.6 +9.9 57 +19 +22 тепло 1017.6 1007.0
14 21.05 СЗ 2 17 км 8/6 1380 м
[Cb calv Ac trans]
+18.5 +10.1 58 +20 +24 тепло 1017.8 1007.2
15 21.05 СЗ 5
{10}
20 км 9/8 1080 м
[Cb calv Ac trans]
+18.0 +8.5 54 +18 +18 по сезону 1017.9 1007.3
16 21.05 СЗ 1 35 км 9/6 1200 м
[Cu Sc Ac trans]
+18.1 +8.4 53 +19 +21 тепло 1017.8 1007.2
17 21.05 СЗ 3 25 км 8/1 1500 м
[Cu med, cong Ac trans]
+19.4 +7.8 47 +21 +22 комфорт 1018.0 1007.4
18 21.05 СЗ 3
{8}
20 км 9/9 1500 м
[Cu Sc]
+17.9 +8.5 54 +18 +18 тепло 1018.3 1007.7 +12.7 +20.3
19 21.05 З 2 45 км 9/1 1500 м
[Cu med, cong Ac trans]
+17.8 +9.4 58 +19 +19 тепло 1018.6 1008.0
20 21.05 СЗ 2 20 км 4/0
[Ac trans]
+16.2 +9.8 66 +17 +17 тепло 1019.1 1008.4
21 21.05 СЗ 3
{5}
20 км 1/0
[Ac trans]
+15.5 +9.6 68 +15 +15 по сезону 1019.5 1008.8
22 21.05 СЗ 2 20 км 1/0
[Ac trans]
+13.0 +7.7 70 +13 +13 тепло 1019.9 1009.1
23 21.05 С 1 18 км ясно +12.4 +7.1 70 +12 +12 тепло 1020.2 1009.3
00 22.05 СЗ 2
{3}
20 км ясно +12.0 +7.5 74 +11 +11 по сезону 1020.3 1009.4
01 22.05 С 1 20 км ясно +11.0 +7.3 78 +12 +12 тепло 1020.3 1009.4
02 22.05 СЗ 1 20 км ясно +10.0 +7.1 82 +10 +10 по сезону 1020.7 1009.7
03 22.05 З 2
{2}
20 км ясно +8.4 +6.7 89 +7 +7 прохладно 1020.7 1009.7
04 22.05 З 1 10 км 1/0
[]
+7.6 +6.2 91 +8 +8 по сезону 1020.8 1009.7
05 22.05 З 1
{2}
20 км 5/0
[Ci fib]
+8.8 +8.0 95 +8 +8 по сезону 1020.9 1009.9
06 22.05 З 1
{2}
20 км 8/0
[Ci fib]
+12.3 +10.5 89 +12 +14 по сезону 1021.0 1010.1 +7.6 +18.2
07 22.05 ЮВ 1 20 км 9/0
[]
+15.4 +10.2 71 +17 +20 тепло 1021.1 1010.3
08 22.05 ЮВ 1 20 км 9/0
[]
+17.0 +8.2 56 +19 +24 тепло 1021.1 1010.4
09 22.05 Ю 2
{4}
25 км 9/1 1300 м
[Cu hum Ci fib]
+17.5 +7.2 51 +18 +27 тепло 1021.2 1010.5
10 22.05 ЮВ 1 19 км 9/3 1500 м
[Cu hum Ci fib]
+19.8 +7.8 46 +22 +32 комфорт 1021.2 1010.6
11 22.05 В 1 19 км н/о +19.5 +5.5 40 +22 +22 комфорт 1021.1 1010.5
12 22.05 СВ 2
{7}
30 км 9/3 1500 м
[Cu hum Ci fib]
+19.5 +6.6 43 +21 +32 комфорт 1020.9 1010.3
13 22.05 СВ 1 30 км 9/4 1500 м
[Cu hum Ci fib]
+21.1 +5.8 37 +22 +32 комфорт 1020.7 1010.1
14 22.05 З 1 35 км 9/3 2000 м
[Cu hum Ci fib]
+21.4 +4.9 34 +22 +31 комфорт 1020.3 1009.8
15 22.05 З 2
{7}
40 км 9/3 2000 м
[Sc diur, vesp Ci fib]
+21.5 +5.8 36 +22 +28 комфорт 1020.1 1009.6
16 22.05 ЮЗ 1 35 км 9/9 2000 м
[]
+20.5 +5.7 38 +23 +24 комфорт 1019.9 1009.3
17 22.05 СЗ 1 35 км 9/9 2000 м
[]
+19.6 +6.7 43 +22 +22 комфорт 1019.6 1009.0
18 22.05 З 2
{7}
30 км 10/4 2000 м
[Sc Cs]
+19.2 +7.3 46 +21 +21 комфорт 1019.7 1009.1 +12.4 +22.5
19 22.05 Ю 1 35 км 9/4 2000 м
[Sc Cs]
+18.3 +7.4 49 +20 +20 тепло 1019.7 1009.1
20 22.05 СЗ 2 45 км 9/3 2000 м
[Sc Ac trans Cs]
+16.8 +7.2 53 +17 +17 тепло 1020.2 1009.5
21 22.05 СЗ 3
{4}
30 км 9/1 1500 м
[Sc Ac trans Ci sp]
+15.2 +6.7 57 +15 +15 по сезону 1020.4 1009.6
22 22.05 З 1 40 км 5/1 1500 м
[Sc Ci fib]
+13.6 +7.4 66 +15 +15 тепло 1020.3 1009.5
23 22.05 ЮЗ 1 25 км ясно +12.5 +7.2 70 +13 +13 тепло 1020.1 1009.2
00 23.05 З 2
{3}
25 км ясно +11.3 +7.4 77 +10 +10 по сезону 1020.0 1009.1
01 23.05 З 1 28 км 1/0
[]
+10.3 +7.4 82 +11 +11 тепло 1019.8 1008.9
02 23.05 ЮЗ 1 24 км 1/0
[]
+9.6 +7.9 89 +10 +10 тепло 1019.6 1008.6

 

Местоположение метеостанции Париж Орли аэропорт (Франция): широта 48.72 долгота 2.38 высота над уровнем моря 90 м.

В архиве по умолчанию представлена погода в Париж Орли аэропорту за последнюю неделю. Архивные данные за месяц целиком и за предыдущие месяцы, начиная с января 2011 года, Вы можете получить, выбрав интересующий диапазон дат из раскрывающегося списка и нажав кнопку "Ввод!".


*Определитесь, кто Вы:
робот инопланетянин человек

Внимание! Время в таблицах - всемирное. Для получения местного времени необходимо прибавить поправку, которая равна 1 ч.

Смотрите также архив погоды в соседних городах и на ближайших метеорологических станциях:

Погода в Париже (Франция) (12 км)
Погода в Велизи-Вилакубле (Франция) (14 км)
Погода в Мелене (Франция) (25 км)
Погода в Ле-Бурже (Франция) (28 км)
Погода в Трапе (Франция) (28 км)
Погода в Аэропорту Шарль де Голль (Франция) (35 км)
Погода в Кормее (Франция) (48 км)
Погода в Крее (Франция) (60 км)
Погода в Шартре (Франция) (70 км)
Погода в Бове (Франция) (86 км)

Пояснения к столбцам:

Ветер - указаны скорость ветра в м/с - средняя за 10 мин, порывы в срок и между сроками (в фигурных скобках) и направление, откуда дует ветер: С - северный, СВ - северо-восточный, В - восточный, ЮВ - юго-восточный, Ю - южный, ЮЗ - юго-западный, З - западный, СЗ - северо-западный.
Видимость - горизонтальная дальность видимости в метрах или километрах. При видимости от 1 до 10 км при отсутствии осадков обычно наблюдается дымка, при ухудшении видимости до 1 км и менее - туман. В сухую погоду видимость может ухудшаться дымом, пылью или мглою.
Явления - указаны атмосферные явления, наблюдавшиеся в срок или в последний час перед сроком; фигурными скобками обозначены явления, наблюдавшиеся между сроками (за 1-3 часа до срока); квадратными скобками обозначены град или гололедные отложения с указанием их диаметра в мм.
Облачность - указаны через наклонную черту общая и нижняя облачность в баллах и высота нижней границы облаков в метрах; квадратными скобками обозначены формы облаков: Ci - перистые, Cs - перисто-слоистые, Cc - перисто-кучевые, Ac - высококучевые, As - высокослоистые, Sc - слоисто-кучевые, Ns - слоисто-дождевые, Cu - кучевые, Cb - кучево-дождевые. Подробнее классификацию облаков см. в Атласе облаков (PDF).
T - Температура воздуха - температура, измеренная на высоте 2 м над землей.
Td - Температура точки росы - температура, при понижении до которой содержащийся в воздухе водяной пар достигнет насыщения.
f - Относительная влажность воздуха - влажноcть воздуха, измеренная на высоте 2 м над землей.
Te - Эффективная температура - температура, которую ощущает одетый по сезону человек в тени. Характеристика душности погоды. При расчете учитывается влияние влажности воздуха и скорости ветра на теплоощущения человека.
Tes - Эффективная температура на солнце - температура, которую ощущает человек, с поправкой на солнечный нагрев. Характеристика знойности погоды. Зависит от высоты солнца над горизонтом, облачности и скорости ветра. Ночью, в пасмурную погоду, а также при ветре 12 м/с и более поправка равна нулю.
P - Атмосферное давление - приведенное к уровню моря атмосферное давление.
Po - Атмосферное давление - измеренное на уровне метеостанции атмосферное давление.
Tmin - Минимальная температура - минимум температуры воздуха на высоте 2 м над землей.
Tmax - Максимальная температура - максимум температуры воздуха на высоте 2 м над землей.
R - Количество осадков - Количество выпавших осадков за период времени, мм. При наведении курсора мыши на число - период времени, за который выпало указанное количество осадков.
R24 - Количество осадков - Количество выпавших осадков за 24 часа, мм.
S - Снежный покров - Высота снежного покрова, см. При наведении курсора мыши на число - состояние снежного покрова и степень покрытия местности в баллах.